YAMAL 601 (44307 NORAD) Tracking and Keplerian Element Data

This shows tracking and keplerian element data for the satellite.

Feedback or suggestion? Click here.




ElementValue
Catalog44307
NameYAMAL 601
Epoch Orbit37
Epoch Day176.93119904
Epoch Year2019
RAAN93.9494
Inclination0.0227
Eccentricity0.0002182
Argument of Perigee358.6963
Mean Anonmoly205.1496
Mean Motion1.00270587
Decay Rate1.27E-06
L11 44307U 19031A 19176.93119904 .00000127 00000-0 00000-0 0 9992
L22 44307 0.0227 93.9494 0002182 358.6963 205.1496 1.00270587 379

Live tracking and technical data element details for YAMAL 601 (NORAD 44307). YAMAL 601 can be tracked NOW for your location showing map with azimuth and elevation plus other details from your city location.

Track the satellite on the map from your city or location and see movement details for azimuth, elevation, latitude, longitude, range, height, and movement on the map or in text.







IsCatalogInMostPopularTable: catalog: 44307, numindb: 15
Update: records affected: 1



GetName: 44307 YAMAL 601

Hit Count: updated at: Fri, 19 Jul 2019 08:35:59 GMT